SAS949 EKCH-CYYZ

Flight info

Callsign SAS949
Flight time N/A
Altitude 33000
Route LANGO P999 ALS P615 ASBIL/N0448F340 L983 PETIL DCT REKNA DCT RIVOT DCT INBAS DCT GINGA DCT AGORI DCT KESIX DCT SUNOT/M078F360 DCT 58N020W 58N030W 58N040W 57N050W DCT HOIST/N0452F360 N750B YBC/N0446F380 Q910 IMORI Q921 AGLUK Q941 TAMKO Q852 KANUR Q806 TUKIR RAGID6
Aircraft A21N/M-SDE2E3FGHIJ1RWXY/LB1

Departure

Time N/A
Airport Copenhagen Kastrup Airport (EKCH)

Arrival

Time 2026-05-05 11:32
Airport Toronto Pearson International Airport (CYYZ)
Time Latitude Longitude Altitude Speed Heading
2026-05-05 11:06 44.89346 -78.21703 29468 ft 364 kts 211°
2026-05-05 11:06 44.87085 -78.23250 29003 ft 360 kts 211°
2026-05-05 11:07 44.84840 -78.24804 28493 ft 358 kts 212°
2026-05-05 11:07 44.82621 -78.26355 27998 ft 354 kts 212°
2026-05-05 11:07 44.80422 -78.27894 27491 ft 352 kts 211°
2026-05-05 11:07 44.78235 -78.29423 26988 ft 350 kts 211°
2026-05-05 11:08 44.76065 -78.30942 26461 ft 348 kts 211°
2026-05-05 11:08 44.73904 -78.32453 25936 ft 346 kts 211°
2026-05-05 11:08 44.71758 -78.33952 25435 ft 343 kts 211°
2026-05-05 11:08 44.69626 -78.35439 24952 ft 341 kts 211°
2026-05-05 11:09 44.67510 -78.36915 24454 ft 338 kts 210°
2026-05-05 11:09 44.65408 -78.38381 23926 ft 337 kts 210°
2026-05-05 11:09 44.63311 -78.39841 23411 ft 336 kts 210°
2026-05-05 11:09 44.61224 -78.41291 22892 ft 333 kts 210°
2026-05-05 11:10 44.59151 -78.42730 22422 ft 332 kts 210°
2026-05-05 11:10 44.57090 -78.44162 21952 ft 330 kts 210°
2026-05-05 11:10 44.55046 -78.45580 21433 ft 327 kts 210°
2026-05-05 11:10 44.53018 -78.46986 20948 ft 324 kts 210°
2026-05-05 11:11 44.51002 -78.48384 20463 ft 322 kts 210°
2026-05-05 11:11 44.48994 -78.49774 19957 ft 321 kts 210°
2026-05-05 11:11 44.46992 -78.51159 19296 ft 321 kts 210°
2026-05-05 11:11 44.44996 -78.52538 18784 ft 319 kts 210°
2026-05-05 11:12 44.43021 -78.53901 18323 ft 314 kts 210°
2026-05-05 11:12 44.41078 -78.55242 17896 ft 309 kts 210°
2026-05-05 11:12 44.39160 -78.56564 17493 ft 307 kts 210°
2026-05-05 11:12 44.37246 -78.57885 17099 ft 306 kts 210°
2026-05-05 11:13 44.35334 -78.59202 16687 ft 307 kts 210°
2026-05-05 11:13 44.33420 -78.60519 16267 ft 307 kts 210°
2026-05-05 11:13 44.31514 -78.61827 15946 ft 303 kts 210°
2026-05-05 11:13 44.29657 -78.63102 15680 ft 301 kts 210°
2026-05-05 11:14 44.27764 -78.64402 15415 ft 298 kts 210°
2026-05-05 11:14 44.25910 -78.65675 15111 ft 297 kts 210°
2026-05-05 11:14 44.24086 -78.66926 14753 ft 296 kts 210°
2026-05-05 11:14 44.22243 -78.68191 14369 ft 295 kts 210°
2026-05-05 11:15 44.20404 -78.69451 13983 ft 294 kts 210°
2026-05-05 11:15 44.18570 -78.70707 13621 ft 293 kts 210°
2026-05-05 11:15 44.16741 -78.71955 13257 ft 292 kts 210°
2026-05-05 11:15 44.14919 -78.73198 12891 ft 291 kts 210°
2026-05-05 11:16 44.13102 -78.74439 12532 ft 290 kts 210°
2026-05-05 11:16 44.11291 -78.75672 12173 ft 289 kts 210°
2026-05-05 11:16 44.09487 -78.76899 11806 ft 288 kts 210°
2026-05-05 11:16 44.07693 -78.78121 11446 ft 286 kts 210°
2026-05-05 11:17 44.05906 -78.79339 11092 ft 286 kts 210°
2026-05-05 11:17 44.04158 -78.80649 10844 ft 283 kts 218°
2026-05-05 11:17 44.02712 -78.82466 10703 ft 278 kts 228°
2026-05-05 11:17 44.01432 -78.84456 10553 ft 276 kts 230°
2026-05-05 11:18 44.00165 -78.86438 10439 ft 272 kts 229°
2026-05-05 11:18 43.98918 -78.88368 10333 ft 265 kts 230°
2026-05-05 11:18 43.97693 -78.90253 10188 ft 259 kts 229°
2026-05-05 11:18 43.96476 -78.92087 9778 ft 258 kts 229°
2026-05-05 11:19 43.95263 -78.93914 9290 ft 256 kts 229°
2026-05-05 11:19 43.94056 -78.95723 8791 ft 256 kts 229°
2026-05-05 11:19 43.92851 -78.97537 8303 ft 255 kts 230°
2026-05-05 11:19 43.91653 -78.99337 7916 ft 252 kts 230°
2026-05-05 11:20 43.90466 -79.01093 7663 ft 246 kts 229°
2026-05-05 11:20 43.89315 -79.02807 7478 ft 239 kts 229°
2026-05-05 11:20 43.88207 -79.04469 7309 ft 231 kts 231°
2026-05-05 11:20 43.87346 -79.06261 7174 ft 219 kts 249°
2026-05-05 11:21 43.87149 -79.08291 7029 ft 212 kts 271°
2026-05-05 11:21 43.87394 -79.10295 6844 ft 209 kts 276°
2026-05-05 11:21 43.87680 -79.12264 6653 ft 208 kts 276°
2026-05-05 11:21 43.87947 -79.14228 6456 ft 207 kts 275°
2026-05-05 11:22 43.88202 -79.16184 6274 ft 206 kts 275°
2026-05-05 11:22 43.88453 -79.18136 6093 ft 205 kts 275°
2026-05-05 11:22 43.88699 -79.20077 5921 ft 204 kts 275°
2026-05-05 11:22 43.88943 -79.22021 5749 ft 205 kts 275°
2026-05-05 11:23 43.89183 -79.23951 5570 ft 201 kts 275°
2026-05-05 11:23 43.89420 -79.25844 5399 ft 198 kts 275°
2026-05-05 11:23 43.89654 -79.27704 5236 ft 194 kts 275°
2026-05-05 11:23 43.89883 -79.29540 5081 ft 191 kts 275°
2026-05-05 11:24 43.90097 -79.31292 4898 ft 183 kts 273°
2026-05-05 11:24 43.90073 -79.33038 4594 ft 177 kts 252°
2026-05-05 11:24 43.89480 -79.34486 4253 ft 176 kts 231°
2026-05-05 11:24 43.88571 -79.35653 4040 ft 180 kts 225°
2026-05-05 11:25 43.87678 -79.36892 4006 ft 182 kts 227°
2026-05-05 11:25 43.86804 -79.38156 4011 ft 182 kts 227°
2026-05-05 11:25 43.85931 -79.39430 4020 ft 183 kts 228°
2026-05-05 11:25 43.85055 -79.40710 4027 ft 183 kts 228°
2026-05-05 11:26 43.84183 -79.41983 4028 ft 182 kts 228°
2026-05-05 11:26 43.83311 -79.43257 4029 ft 182 kts 228°
2026-05-05 11:26 43.82469 -79.44485 4056 ft 166 kts 228°
2026-05-05 11:26 43.81714 -79.45588 3979 ft 151 kts 228°
2026-05-05 11:27 43.81005 -79.46622 3822 ft 148 kts 229°
2026-05-05 11:27 43.80535 -79.47306 3706 ft 148 kts 228°
2026-05-05 11:27 43.79590 -79.48687 3453 ft 148 kts 227°
2026-05-05 11:27 43.79118 -79.49375 3321 ft 149 kts 227°
2026-05-05 11:28 43.78403 -79.50418 3126 ft 150 kts 227°
2026-05-05 11:28 43.77689 -79.51455 2925 ft 144 kts 226°
2026-05-05 11:28 43.77019 -79.52433 2730 ft 137 kts 226°
2026-05-05 11:28 43.76367 -79.53383 2553 ft 136 kts 226°
2026-05-05 11:29 43.75717 -79.54331 2380 ft 136 kts 226°
2026-05-05 11:29 43.75063 -79.55284 2199 ft 137 kts 226°
2026-05-05 11:29 43.74408 -79.56237 2018 ft 137 kts 226°
2026-05-05 11:29 43.73753 -79.57191 1832 ft 137 kts 226°
2026-05-05 11:30 43.73095 -79.58149 1651 ft 138 kts 226°
2026-05-05 11:30 43.72434 -79.59111 1456 ft 138 kts 226°
2026-05-05 11:30 43.71770 -79.60068 1285 ft 138 kts 226°
2026-05-05 11:30 43.71121 -79.61040 1075 ft 138 kts 226°
2026-05-05 11:31 43.70457 -79.61996 900 ft 138 kts 226°
2026-05-05 11:31 43.69793 -79.62958 750 ft 139 kts 226°
2026-05-05 11:31 43.69127 -79.63924 587 ft 139 kts 226°
2026-05-05 11:31 43.68502 -79.64828 568 ft 119 kts 226°
2026-05-05 11:32 43.68079 -79.65446 567 ft 60 kts 225°
2026-05-05 11:32 43.67870 -79.65746 569 ft 41 kts 227°
2026-05-05 11:32 43.67670 -79.66034 574 ft 42 kts 225°
2026-05-05 11:32 43.67521 -79.66254 567 ft 20 kts 229°
2026-05-05 11:33 43.67459 -79.66309 565 ft 10 kts 172°
2026-05-05 11:33 43.67393 -79.66250 565 ft 13 kts 136°
2026-05-05 11:33 43.67332 -79.66165 570 ft 7 kts 119°
2026-05-05 11:33 43.67350 -79.66094 570 ft 10 kts 47°
2026-05-05 11:34 43.67410 -79.66008 572 ft 14 kts 46°
2026-05-05 11:34 43.67484 -79.65901 577 ft 16 kts 46°
2026-05-05 11:34 43.67570 -79.65777 579 ft 19 kts 46°
2026-05-05 11:34 43.67666 -79.65638 572 ft 21 kts 46°
2026-05-05 11:35 43.67771 -79.65486 576 ft 23 kts 46°
2026-05-05 11:35 43.67883 -79.65324 568 ft 24 kts 45°
2026-05-05 11:35 43.67998 -79.65157 569 ft 22 kts 47°
2026-05-05 11:35 43.68093 -79.65018 574 ft 18 kts 46°
2026-05-05 11:36 43.68186 -79.64886 574 ft 17 kts 46°
2026-05-05 11:36 43.68247 -79.64797 575 ft 13 kts 46°
2026-05-05 11:36 43.68316 -79.64696 574 ft 14 kts 46°
2026-05-05 11:36 43.68343 -79.64634 572 ft 6 kts 87°
2026-05-05 11:37 43.68316 -79.64576 571 ft 9 kts 136°
2026-05-05 11:37 43.68266 -79.64512 571 ft 11 kts 139°
2026-05-05 11:37 43.68200 -79.64427 571 ft 14 kts 136°
2026-05-05 11:37 43.68122 -79.64323 573 ft 17 kts 136°
2026-05-05 11:38 43.68031 -79.64205 572 ft 19 kts 137°
2026-05-05 11:38 43.67927 -79.64071 572 ft 21 kts 137°
2026-05-05 11:38 43.67814 -79.63922 572 ft 23 kts 136°
2026-05-05 11:38 43.67691 -79.63760 572 ft 25 kts 136°
2026-05-05 11:39 43.67559 -79.63588 571 ft 27 kts 136°
2026-05-05 11:39 43.67417 -79.63404 571 ft 29 kts 137°
2026-05-05 11:39 43.67282 -79.63228 572 ft 26 kts 137°
2026-05-05 11:39 43.67147 -79.63053 574 ft 28 kts 137°
2026-05-05 11:40 43.67008 -79.62872 573 ft 22 kts 136°
2026-05-05 11:40 43.66905 -79.62736 573 ft 21 kts 136°
2026-05-05 11:40 43.66791 -79.62589 573 ft 23 kts 137°
2026-05-05 11:40 43.66678 -79.62442 573 ft 14 kts 136°
2026-05-05 11:41 43.66625 -79.62367 574 ft 11 kts 117°
2026-05-05 11:41 43.66655 -79.62268 572 ft 13 kts 45°
2026-05-05 11:41 43.66726 -79.62165 577 ft 16 kts 46°
2026-05-05 11:41 43.66808 -79.62046 578 ft 18 kts 46°
2026-05-05 11:42 43.66901 -79.61911 574 ft 20 kts 46°
2026-05-05 11:42 43.67004 -79.61762 577 ft 22 kts 46°
2026-05-05 11:42 43.67112 -79.61606 572 ft 20 kts 46°
2026-05-05 11:42 43.67215 -79.61474 573 ft 16 kts 42°
2026-05-05 11:43 43.67269 -79.61408 575 ft 10 kts 42°
2026-05-05 11:43 43.67326 -79.61346 573 ft 12 kts 25°
2026-05-05 11:43 43.67408 -79.61301 568 ft 14 kts 21°
2026-05-05 11:43 43.67479 -79.61283 574 ft 10 kts 330°
2026-05-05 11:44 43.67518 -79.61378 574 ft 13 kts 300°
2026-05-05 11:44 43.67581 -79.61480 567 ft 15 kts 317°
2026-05-05 11:44 43.67663 -79.61590 575 ft 18 kts 311°
2026-05-05 11:44 43.67753 -79.61718 570 ft 20 kts 316°
2026-05-05 11:45 43.67857 -79.61854 574 ft 20 kts 319°
2026-05-05 11:45 43.67938 -79.61917 567 ft 14 kts 335°
2026-05-05 11:45 43.68026 -79.61993 567 ft 16 kts 317°
2026-05-05 11:45 43.68085 -79.62077 567 ft 6 kts 317°
2026-05-05 11:46 43.68123 -79.62124 570 ft 9 kts 317°
2026-05-05 11:46 43.68158 -79.62170 573 ft 2 kts 316°
2026-05-05 11:46 43.68179 -79.62171 570 ft 5 kts 32°
2026-05-05 11:46 43.68197 -79.62124 567 ft 6 kts 68°
2026-05-05 11:47 43.68207 -79.62088 572 ft 4 kts 69°
2026-05-05 11:47 43.68211 -79.62076 568 ft 0 kts 69°